Showing default

HAIYANG 2B, 43655

Orbit data source: Space-Track

HAIYANG 2B, 43655 is a Chinese payload satellite in SSO that was launched on Wed, 24 Oct 2018 UTC via a CHANG ZHENG 4B launch vehicle from the Taiyaun Space Center, China (TSC). Payloads include a variety of satellites, spacecraft, and rockets equipped with specific instruments for various scientific and technological missions. These include communications satellites like Starlink; space stations such as the ISS; scientific satellites like the Hubble; Earth observation satellites from companies like Planet Labs, Umbra, and HawkEye 360; GPS; miniature CubeSats for education and research; and military/defense satellites.

Loading next visibility...
HAIYANG 2B details
Identifier
43655, 2018-081A
Orbit
SSO
Last TLE update7 hours ago
Origin
Flag of CNGYZ/CASC (CN / PRC)
ManufacturerSISE
MissionOperational Civil Science
Bus & MotorCAST-968?, Unknown motor
Mass~1,500 kg wet, ~1,500 kg dry
Launch date (UTC)
2018-10-24 (6 years ago)
Launch vehicle
CHANG ZHENG 4B
Launch site
Taiyaun Space Center, China (TSC)
Object type
Payload
Rocket body
Debris
Shape & HBRBox + 2 Pan, 4 m
Radar Cross Section2.315 m², Large (>1 m²)

Expand to show TLE details & history

TLE from 7 hours ago
0 HAIYANG 2B
1 43655U 18081A   24361.28800671  .00000046  00000-0  87794-4 0  9998
2 43655  99.3359   7.0024 0000319 255.2375 104.8741 13.79304533310779
Epoch: 2024-12-26T06:54Z
Definitive object data (Epoch: 2024-12-26T06:54:43.779Z)
Latitude-0.00009°
Longitude168.05045°
Altitude969.253 km
Speed7.367 km/s
True Right ascension00h 28m 00s
True Declination0° 00' 00"
Sunlit
Object was in daylight at TLE epoch
Visualization TLE readout
Latitude-55.67684°
Longitude-177.81546°
Altitude987.725 km
Speed7.357 km/s
Apparent Right ascension01h 10m 05s
Apparent Declination-48° 14' 28"
Sunlit
Object is in daylight
Visualization observer readout
Local Sidereal Time12:57:48
Azimuth193.785° SSW
Elevation-81.39°
Doppler factor1
Orbital elements
Apogee altitude963.832 km
Perigee altitude963.364 km
Semi-major axis7,341.735 km
Eccentricity0.0000319
Inclination99.3359°
RAAN7.0024°
Arg. of periapsis255.2375°
True anomaly104.87763°
Mean anomaly104.8741°
Eccentric anomaly104.87587°
Mean motion3.45021 °/min
BSTAR0.000087794
Orbital period104.34 mins
Loading maneuver chart data...
Loading historical data...
Loading historical data...
Loading historical data...
Loading historical data...
Loading historical data...
Loading historical data...
Loading historical data...

HAIYANG 2B Visibility forecast

Observer location: undefined°, undefined

Span
Click to sort rows by Start time (UTC) header in descending order
Start Az.
Max El. time (UTC)
Max El. Az.
Max El.
End time (UTC)
End Az.
10 mins2024-12-26 14:27:06.016Z354.366° N2024-12-26 14:32:06.016Z291.707° WNW29.625°2024-12-26 14:37:06.016Z232.292° WSW
11 mins2024-12-27 00:26:06.016Z160.428° S2024-12-27 00:31:06.016Z73.239° E44.801°2024-12-27 00:37:06.016Z347.391° N
4 mins2024-12-27 02:13:06.016Z252.869° W2024-12-27 02:15:06.016Z273.989° WNW13.112°2024-12-27 02:17:06.016Z294.294° NW
10 mins2024-12-27 13:07:06.016Z29.718° NE2024-12-27 13:11:06.016Z94.871° ESE39.06°2024-12-27 13:17:06.016Z177.898° S
|